Location: Azul
(36.7830°S, 59.8500°W)
Time: 09:53:37
(UTC-03:00)

ISS - Pass Details

Date: 13 December 2017
Orbit: 402 x 406 km, 51.6° (Epoch: 16 December)

Event Time Altitude Azimuth Distance (km) Brightness Sun altitude
Exits shadow 02:20:02 18° 198° (SSW) 1,106 -1.1 -26.7°
Drops below altitude 10° 02:22:03 10° 162° (SSE) 1,487 0.0 -26.5°
Sets 02:24:37 0° 141° (SE) 2,353 1.2 -26.3°
